Content
SEND FEEDBACK

Daily
Averages
Monthly
Summary
United States of America

LEGGETT, TEXAS


Home > North America > United States > Texas
Elevation: 172 feet     Latitude: 30 44N     Longitude: 094 56W

WEATHER
 
SELECT A DAY
Number of Records: 123,522;   Date Range: 10/20/09 - 12/18/14
 
SHARE

PRINT THIS DATA

[ ← Previous Day ]
WEATHER ALMANAC - JANUARY 23, 2013
[ Next Day → ]
[ °C ]   °F
Weather ElementAverageHighLow
Temperature57.9 °F73.4 °F (1:15 pm)41 °F (12:55 am)
Dewpoint50.1 °F55.4 °F (9:55 am)39.2 °F (12:55 am)
Humidity78.2 %100 % (3:55 am)44 % (1:55 pm)
Barometer30.30 in30.37 in (9:55 am)30.25 in (4:35 pm)
Wind Speed4.2 mph12.7 mph (12:15 pm)
Wind Gust18.4 mph (12:15 pm)
Weather ElementAverage
Visibility6.2 mi
Wind DirectionESE (117.8 °)

Weather ElementTotal
Precipitation---
Heating Degree Days7.8 (Base 65)
Growing Degree Days7.2 (Base 50)
Averaged from 67 records on January 23, 2013
WEATHER CONDITIONS BREAKOUT
WIND DIRECTION BREAKOUT
WEATHER BY HOUR - JANUARY 23, 2013
[ °C ]   °F
Local TimeTemperatureDewpointHumidityBarometerVisibilityWind DirectionWind SpeedGust SpeedPrecipitationEventsConditions
12:35 AM42.8 °F41.0 °F93 %30.31 in2.0 miCalmClear
12:55 AM41.0 °F39.2 °F93 %30.31 in0.2 miCalmFogFog
1:15 AM42.8 °F41.0 °F93 %30.32 in0.2 miCalmFogFog
1:35 AM42.8 °F41.0 °F93 %30.32 in1.2 miCalmOvercast
1:55 AM42.8 °F41.0 °F93 %30.31 in0.2 miCalmFogFog
2:15 AM44.6 °F42.8 °F93 %30.31 in0.2 miCalmFogFog
2:35 AM44.6 °F42.8 °F93 %30.31 in0.2 miCalmFogFog
2:55 AM44.6 °F42.8 °F93 %30.31 in0.2 miCalmFogFog
3:15 AM44.6 °F42.8 °F93 %30.31 in0.2 miCalmFogFog
3:35 AM44.6 °F42.8 °F93 %30.31 in0.2 miCalmFogFog
3:55 AM44.6 °F44.6 °F100 %30.31 in0.2 miCalmFogFog
4:15 AM44.6 °F42.8 °F93 %30.31 in0.2 miCalmFogFog
4:35 AM44.6 °F44.6 °F100 %30.31 in0.2 miCalmFogFog
4:55 AM44.6 °F44.6 °F100 %30.31 in0.2 miCalmFogFog
5:15 AM44.6 °F44.6 °F100 %30.31 in0.2 miCalmFogFog
5:35 AM46.4 °F44.6 °F93 %30.32 in0.2 miCalmFogFog
6:35 AM46.4 °F44.6 °F93 %30.32 in0.2 miCalmFogFog
6:55 AM46.4 °F44.6 °F93 %30.33 in0.2 miCalmFogFog
7:15 AM46.4 °F44.6 °F93 %30.34 in0.2 miCalmFogFog
7:35 AM46.4 °F44.6 °F93 %30.34 in0.2 miCalmFogFog
7:55 AM46.4 °F46.4 °F100 %30.35 in0.2 miCalmFogFog
8:15 AM48.2 °F46.4 °F93 %30.35 in0.2 miCalmFogFog
8:35 AM48.2 °F46.4 °F93 %30.35 in0.2 miCalmFogFog
9:15 AM53.6 °F51.8 °F94 %30.36 in1.8 miSouth (180°)4.6 mphOvercast
9:35 AM53.6 °F53.6 °F100 %30.36 in7.0 miSouth (170°)5.8 mphMostly Cloudy
9:55 AM57.2 °F55.4 °F94 %30.37 in10.0 miSouth (170°)6.9 mphClear
10:15 AM59.0 °F55.4 °F88 %30.37 in10.0 miSouth (170°)5.8 mphClear
10:35 AM62.6 °F55.4 °F77 %30.36 in10.0 miSouth (180°)4.6 mphClear
10:55 AM68.0 °F55.4 °F64 %30.36 in10.0 miSouth (170°)8.1 mphClear
11:15 AM68.0 °F55.4 °F64 %30.36 in10.0 miSouth (190°)10.4 mphClear
11:35 AM69.8 °F55.4 °F60 %30.35 in10.0 miSSW (200°)9.2 mphClear
11:55 AM71.6 °F55.4 °F57 %30.34 in10.0 miSSW (210°)9.2 mphScattered Clouds
12:15 PM71.6 °F55.4 °F57 %30.33 in10.0 miSouth (190°)12.7 mph18.4 mphScattered Clouds
12:35 PM71.6 °F55.4 °F57 %30.31 in10.0 miSSW (210°)11.5 mphMostly Cloudy
12:55 PM71.6 °F53.6 °F53 %30.30 in10.0 miSW (220°)6.9 mphMostly Cloudy
1:15 PM73.4 °F51.8 °F47 %30.29 in10.0 miSSW (200°)11.5 mphMostly Cloudy
1:35 PM71.6 °F51.8 °F50 %30.28 in10.0 miSSW (200°)5.8 mph9.2 mphMostly Cloudy
1:55 PM73.4 °F50.0 °F44 %30.28 in10.0 miSSW (200°)4.6 mphScattered Clouds
2:15 PM73.4 °F50.0 °F44 %30.27 in10.0 miSouth (190°)5.8 mphScattered Clouds
2:35 PM71.6 °F50.0 °F46 %30.26 in10.0 miSouth (190°)5.8 mphScattered Clouds
2:55 PM73.4 °F51.8 °F47 %30.26 in10.0 miSSW (210°)3.5 mphScattered Clouds
3:15 PM71.6 °F51.8 °F50 %30.26 in10.0 miSSW (200°)5.8 mphMostly Cloudy
3:35 PM73.4 °F51.8 °F47 %30.26 in10.0 miSW (230°)4.6 mphMostly Cloudy
3:55 PM73.4 °F50.0 °F44 %30.26 in10.0 miSSW (200°)8.1 mphScattered Clouds
4:15 PM73.4 °F51.8 °F47 %30.26 in10.0 miSouth (190°)6.9 mphMostly Cloudy
4:35 PM69.8 °F53.6 °F56 %30.25 in10.0 miSSE (160°)6.9 mphMostly Cloudy
4:55 PM69.8 °F53.6 °F56 %30.26 in10.0 miSouth (170°)11.5 mphMostly Cloudy
5:15 PM68.0 °F53.6 °F60 %30.25 in10.0 miSouth (180°)8.1 mphMostly Cloudy
5:35 PM64.4 °F53.6 °F68 %30.25 in10.0 miSouth (170°)6.9 mphScattered Clouds
5:55 PM64.4 °F53.6 °F68 %30.26 in10.0 miSSE (160°)4.6 mphClear
6:15 PM64.4 °F53.6 °F68 %30.26 in10.0 miSSE (160°)4.6 mphClear
6:35 PM62.6 °F53.6 °F72 %30.25 in10.0 miSSE (160°)5.8 mphScattered Clouds
6:55 PM62.6 °F53.6 °F72 %30.25 in10.0 miSSE (160°)3.5 mphScattered Clouds
7:15 PM60.8 °F53.6 °F77 %30.26 in10.0 miSSE (160°)3.5 mphClear
7:55 PM59.0 °F53.6 °F82 %30.26 in10.0 miSouth (170°)4.6 mphScattered Clouds
8:15 PM59.0 °F53.6 °F82 %30.25 in10.0 miSouth (170°)5.8 mphScattered Clouds
8:35 PM59.0 °F53.6 °F82 %30.25 in10.0 miSouth (180°)6.9 mphClear
8:55 PM59.0 °F53.6 °F82 %30.25 in10.0 miSouth (170°)5.8 mphClear
9:15 PM59.0 °F53.6 °F82 %30.26 in10.0 miSouth (180°)5.8 mphClear
9:35 PM59.0 °F53.6 °F82 %30.26 in10.0 miSouth (180°)5.8 mphClear
9:55 PM57.2 °F53.6 °F88 %30.26 in10.0 miSouth (180°)5.8 mphClear
10:15 PM57.2 °F53.6 °F88 %30.26 in10.0 miSouth (180°)5.8 mphClear
10:35 PM57.2 °F55.4 °F94 %30.26 in10.0 miSouth (180°)5.8 mphClear
10:55 PM57.2 °F55.4 °F94 %30.25 in7.0 miSouth (180°)5.8 mphClear
11:15 PM57.2 °F55.4 °F94 %30.26 in7.0 miSouth (190°)3.5 mphClear
11:35 PM57.2 °F55.4 °F94 %30.26 in4.0 miSouth (180°)3.5 mphClear
11:55 PM55.4 °F53.6 °F94 %30.26 in0.2 miCalmFogFog
Hourly data recorded from K6R3, located miles away from Leggett, Texas







STORIES FROM OUR PARTNERS